Погода в Хорремабаде

Иран     33°29′09″N   48°21′10″E
темп.,
°C
ветер,
м/с
пор.,
м/с
влажн.,
%
обл.,
%
осадки,
мм/ч
давл.,
гПа
погр.,
м
25 февраля, чт
чт2500:30+6юв1151100 0.0 101730
03:30+4вюв6778100 0.3 1017381
06:30+3всв3383100 0.9 1020332
09:30+3ссв2284100 1.6 1022416
12:30+7всв235596 0.1 10211161
15:30+8всв335191 0.1 10181204
18:30+6всв235829 0.0 1020358
21:30+4всв226414 0.0 1022105
26 февраля, пт
пт2600:30+3всв22680 0.0 102254
03:30+1всв22700 0.0 102233
06:30+1всв22720 0.0 102223
09:30+3всв22560 0.0 1022437
12:30+7всв11460 0.0 1019767
15:30+9вюв11370 0.0 10161342
18:30+8в11530 0.0 101729
21:30+6св12600 0.0 101822
27 февраля, сб
сб2700:30+5всв11650 0.0 101922
03:30+3всв11670 0.0 101822
06:30+2всв12670 0.0 101822
09:30+6всв11520 0.0 1019385
12:30+9юв11400 0.0 10161002
15:30+11з12310 0.0 10141585
18:30+9з22480 0.0 101526
21:30+7зюз11600 0.0 101622
28 февраля, вс
вс2800:30+5юз11620 0.0 101622
03:30+4ююз01650 0.0 101622
06:30+3ююв11660 0.0 101622
09:30+8ююз11460 0.0 1017520
12:30+10зюз23330 0.0 10151705
15:30+12зюз65340 0.0 10141914
18:30+8з33490 0.0 101453
21:30+6з11610 0.0 101622
1 марта, пн
пн100:30+5юз11650 0.0 101722
03:30+3ю01660 0.0 101722
06:30+2в11660 0.0 101722
09:30+7вюв12430 0.0 1018461
12:30+11зюз24250 0.0 10161584
15:30+12зюз55250 0.0 10141915
18:30+9з23390 0.0 101635
21:30+6з11500 0.0 101822